When you browse on this site, cookies collect data to enhance your experience and personalize the content and advertising you see.
Visit our Privacy Policy to learn more. By continuing to use the site, you agree to this use of cookies and data.
  • In Latvia
  • List of Countries
  • For 7 days
  • Water Temperature
  • Weather Map
  • Weather Widgets
  • user-avatar
    Login

    Hourly Weather Pontypool

    Today, 26 January, Sunday

    Time Temperature Precipitation Wind Pressure Humidity
    00:00 +5°C° 0 mm 3 mps 743 mmHg 96%
    01:00 +5°C° 0 mm 3 mps 743 mmHg 96%
    02:00 +5°C° 0 mm 3 mps 742 mmHg 96%
    03:00 +5°C° 0 mm 3 mps 742 mmHg 96%
    04:00 +4°C° 0 mm 3 mps 741 mmHg 96%
    05:00 +4°C° 0 mm 3 mps 741 mmHg 95%
    06:00 +4°C° 0 mm 3 mps 740 mmHg 94%
    07:00 +4°C° 0.2 mm 4 mps 740 mmHg 94%
    08:00 +5°C° 0.2 mm 5 mps 740 mmHg 93%
    09:00 +4°C° 0.2 mm 6 mps 740 mmHg 93%
    10:00 +5°C° 1.3 mm 6 mps 740 mmHg 94%
    11:00 +5°C° 1.3 mm 6 mps 739 mmHg 94%
    12:00 +7°C° 1.3 mm 6 mps 739 mmHg 95%
    13:00 +7°C° 0.2 mm 5 mps 739 mmHg 92%
    14:00 +7°C° 0.2 mm 5 mps 739 mmHg 90%
    15:00 +7°C° 0.2 mm 4 mps 739 mmHg 87%
    16:00 +7°C° 0 mm 3 mps 739 mmHg 89%
    17:00 +5°C° 0 mm 3 mps 738 mmHg 91%
    18:00 +5°C° 0 mm 2 mps 738 mmHg 94%
    19:00 +5°C° 0 mm 2 mps 738 mmHg 93%
    20:00 +4°C° 0 mm 2 mps 738 mmHg 93%
    21:00 +4°C° 0 mm 2 mps 738 mmHg 93%
    22:00 +3°C° 0 mm 2 mps 738 mmHg 93%
    23:00 +3°C° 0 mm 2 mps 738 mmHg 94%

    Tomorrow, 27 January, Monday

    Time Temperature Precipitation Wind Pressure Humidity
    00:00 +2°C° 0 mm 3 mps 737 mmHg 94%
    01:00 +3°C° 0.1 mm 4 mps 737 mmHg 93%
    02:00 +2°C° 0.1 mm 5 mps 736 mmHg 92%
    03:00 +3°C° 0.1 mm 6 mps 736 mmHg 91%
    04:00 +3°C° 0.2 mm 6 mps 736 mmHg 91%
    05:00 +3°C° 0.2 mm 6 mps 735 mmHg 91%
    06:00 +3°C° 0.2 mm 6 mps 735 mmHg 91%
    07:00 +3°C° 0.1 mm 5 mps 735 mmHg 90%
    08:00 +3°C° 0.1 mm 5 mps 735 mmHg 89%
    09:00 +3°C° 0.1 mm 4 mps 735 mmHg 88%
    10:00 +3°C° 0.2 mm 5 mps 735 mmHg 86%
    11:00 +3°C° 0.2 mm 6 mps 734 mmHg 84%
    12:00 +4°C° 0.2 mm 7 mps 734 mmHg 82%
    13:00 +4°C° 0.2 mm 6 mps 733 mmHg 81%
    14:00 +4°C° 0.2 mm 6 mps 733 mmHg 80%
    15:00 +5°C° 0.2 mm 5 mps 732 mmHg 78%
    16:00 +3°C° 0 mm 5 mps 732 mmHg 82%
    17:00 +3°C° 0 mm 4 mps 731 mmHg 86%
    18:00 +2°C° 0 mm 3 mps 730 mmHg 90%
    19:00 +1°C° 0.2 mm 4 mps 730 mmHg 91%
    20:00 +1°C° 0.2 mm 4 mps 729 mmHg 92%
    21:00 +1°C° 0.2 mm 4 mps 729 mmHg 92%
    22:00 +1°C° 0.2 mm 5 mps 728 mmHg 90%
    23:00 +1°C° 0.2 mm 5 mps 728 mmHg 88%

    Day after tomorrow, 28 January, Tuesday

    Time Temperature Precipitation Wind Pressure Humidity
    00:00 +1°C° 0.2 mm 6 mps 727 mmHg 86%
    01:00 0°C° 0 mm 7 mps 728 mmHg 85%
    02:00 -1°C° 0 mm 7 mps 728 mmHg 84%
    03:00 -2°C° 0 mm 8 mps 729 mmHg 82%
    04:00 -2°C° 0 mm 7 mps 730 mmHg 80%
    05:00 -2°C° 0 mm 6 mps 730 mmHg 79%
    06:00 -2°C° 0 mm 6 mps 731 mmHg 77%
    07:00 -2°C° 0 mm 6 mps 731 mmHg 78%
    08:00 -1°C° 0 mm 7 mps 731 mmHg 79%
    09:00 0°C° 0 mm 7 mps 732 mmHg 80%
    10:00 0°C° 0.1 mm 8 mps 732 mmHg 76%
    11:00 +1°C° 0.1 mm 8 mps 732 mmHg 73%
    12:00 +2°C° 0.1 mm 9 mps 732 mmHg 69%
    13:00 +2°C° 0.1 mm 9 mps 733 mmHg 68%
    14:00 +1°C° 0.1 mm 9 mps 733 mmHg 68%
    15:00 +1°C° 0.1 mm 9 mps 733 mmHg 67%
    16:00 0°C° 0 mm 8 mps 733 mmHg 70%
    17:00 0°C° 0 mm 7 mps 734 mmHg 72%
    18:00 -1°C° 0 mm 7 mps 734 mmHg 74%
    19:00 -1°C° 0 mm 7 mps 735 mmHg 75%
    20:00 -2°C° 0 mm 7 mps 735 mmHg 75%
    21:00 -2°C° 0 mm 6 mps 736 mmHg 76%
    22:00 -2°C° 0 mm 6 mps 737 mmHg 76%
    23:00 -2°C° 0 mm 6 mps 737 mmHg 75%

    29 January, Wednesday

    Time Temperature Precipitation Wind Pressure Humidity
    00:00 -2°C° 0 mm 6 mps 738 mmHg 75%
    01:00 -2°C° 0 mm 6 mps 738 mmHg 76%
    02:00 -2°C° 0 mm 6 mps 739 mmHg 77%
    03:00 -2°C° 0 mm 6 mps 739 mmHg 77%
    04:00 -1°C° 0 mm 5 mps 739 mmHg 79%
    05:00 -1°C° 0 mm 5 mps 740 mmHg 81%
    06:00 -1°C° 0 mm 4 mps 740 mmHg 83%
    07:00 -1°C° 0 mm 4 mps 741 mmHg 83%
    08:00 -1°C° 0 mm 4 mps 741 mmHg 83%
    09:00 0°C° 0 mm 4 mps 742 mmHg 82%
    10:00 +1°C° 0 mm 5 mps 742 mmHg 78%
    11:00 +2°C° 0 mm 6 mps 742 mmHg 74%
    12:00 +4°C° 0 mm 7 mps 743 mmHg 69%
    13:00 +4°C° 0 mm 6 mps 743 mmHg 71%
    14:00 +5°C° 0 mm 5 mps 743 mmHg 72%
    15:00 +5°C° 0 mm 5 mps 743 mmHg 74%
    16:00 +4°C° 0 mm 4 mps 744 mmHg 79%
    17:00 +3°C° 0 mm 3 mps 744 mmHg 84%
    18:00 +2°C° 0 mm 2 mps 744 mmHg 88%
    19:00 +2°C° 0 mm 2 mps 744 mmHg 89%
    20:00 +2°C° 0 mm 2 mps 744 mmHg 90%
    21:00 +2°C° 0 mm 2 mps 745 mmHg 91%
    22:00 +2°C° 0 mm 2 mps 745 mmHg 92%
    23:00 +3°C° 0 mm 2 mps 744 mmHg 93%

    30 January, Thursday

    Time Temperature Precipitation Wind Pressure Humidity
    00:00 +3°C° 0 mm 2 mps 744 mmHg 94%
    01:00 +3°C° 0 mm 2 mps 744 mmHg 93%
    02:00 +2°C° 0 mm 2 mps 744 mmHg 93%
    03:00 +2°C° 0 mm 2 mps 743 mmHg 93%
    04:00 +2°C° 0 mm 2 mps 743 mmHg 94%
    05:00 +2°C° 0 mm 2 mps 742 mmHg 95%
    06:00 0°C° 0 mm 3 mps 742 mmHg 96%
    07:00 +1°C° 0 mm 3 mps 742 mmHg 95%
    08:00 +2°C° 0 mm 3 mps 741 mmHg 95%
    09:00 +2°C° 0 mm 3 mps 741 mmHg 95%
    10:00 +3°C° 0.3 mm 3 mps 740 mmHg 94%
    11:00 +3°C° 0.3 mm 4 mps 740 mmHg 94%
    12:00 +4°C° 0.3 mm 4 mps 740 mmHg 93%
    13:00 +4°C° 0.2 mm 4 mps 739 mmHg 94%
    14:00 +4°C° 0.2 mm 3 mps 738 mmHg 95%
    15:00 +4°C° 0.2 mm 3 mps 738 mmHg 96%
    16:00 +4°C° 0.1 mm 3 mps 738 mmHg 97%
    17:00 +6°C° 0.1 mm 2 mps 738 mmHg 98%
    18:00 +6°C° 0.1 mm 2 mps 738 mmHg 98%
    19:00 +6°C° 0 mm 2 mps 738 mmHg 98%
    20:00 +7°C° 0 mm 2 mps 738 mmHg 98%
    21:00 +7°C° 0 mm 2 mps 738 mmHg 98%
    22:00 +7°C° 0 mm 2 mps 738 mmHg 98%
    23:00 +8°C° 0 mm 2 mps 738 mmHg 98%

    31 January, Friday

    Time Temperature Precipitation Wind Pressure Humidity
    00:00 +8°C° 0 mm 2 mps 738 mmHg 98%
    01:00 +8°C° 0 mm 3 mps 738 mmHg 98%
    02:00 +8°C° 0 mm 4 mps 738 mmHg 98%
    03:00 +8°C° 0 mm 4 mps 738 mmHg 97%
    04:00 +8°C° 0 mm 4 mps 738 mmHg 97%
    05:00 +8°C° 0 mm 5 mps 738 mmHg 97%
    06:00 +8°C° 0 mm 5 mps 738 mmHg 96%
    07:00 +8°C° 0.1 mm 5 mps 738 mmHg 96%
    08:00 +8°C° 0.1 mm 5 mps 738 mmHg 96%
    09:00 +8°C° 0.1 mm 5 mps 738 mmHg 95%
    10:00 +8°C° 0.8 mm 6 mps 738 mmHg 96%
    11:00 +9°C° 0.8 mm 6 mps 738 mmHg 96%
    12:00 +9°C° 0.8 mm 6 mps 738 mmHg 96%
    13:00 +9°C° 0.1 mm 6 mps 739 mmHg 91%
    14:00 +8°C° 0.1 mm 6 mps 739 mmHg 86%
    15:00 +8°C° 0.1 mm 6 mps 739 mmHg 81%
    16:00 +7°C° 0 mm 6 mps 740 mmHg 83%
    17:00 +5°C° 0 mm 6 mps 740 mmHg 85%
    18:00 +5°C° 0 mm 5 mps 741 mmHg 88%
    19:00 +5°C° 0 mm 5 mps 742 mmHg 88%
    20:00 +5°C° 0 mm 5 mps 742 mmHg 88%
    21:00 +5°C° 0 mm 5 mps 743 mmHg 89%
    22:00 +3°C° 0 mm 5 mps 743 mmHg 89%
    23:00 +3°C° 0 mm 5 mps 744 mmHg 89%
    Show more